DLH651 UAAA-EDDF

Flight info

Callsign DLH651
Flight time N/A
Altitude 36000
Route TIPSA1A TIPSA M610 ARBOL Z621 GENDI N147 OTBOR/N0477F360 A480 TIMGA B476 METKA L88 NIJAT N644 LAGAS DCT SARPI UM10 GOKPA UL746 ODERO DCT OPT DCT IRLOX DCT GANNA DCT PATAK DCT RAPET T170 GAPLA T178 KERAX KERAX5D
Aircraft A346/H-SDE2E3FGHIJ3J4J5M1P2RWXYZ/LB1D1

Departure

Time 2026-04-30 20:32
Airport Almaty International Airport (UAAA)

Arrival

Time N/A
Airport Frankfurt Main Airport (EDDF)
Time Latitude Longitude Altitude Speed Heading
2026-04-30 20:00 43.34921 77.01358 2232 ft 0 kts 246°
2026-04-30 20:21 43.34925 77.01371 2234 ft 4 kts 246°
2026-04-30 20:21 43.34935 77.01405 2228 ft 4 kts 246°
2026-04-30 20:21 43.34945 77.01432 2228 ft 4 kts 235°
2026-04-30 20:22 43.34957 77.01448 2228 ft 4 kts 196°
2026-04-30 20:22 43.34973 77.01447 2230 ft 4 kts 158°
2026-04-30 20:22 43.34997 77.01431 2234 ft 4 kts 154°
2026-04-30 20:22 43.35004 77.01427 2234 ft 0 kts 155°
2026-04-30 20:26 43.34999 77.01430 2234 ft 2 kts 155°
2026-04-30 20:27 43.34940 77.01466 2230 ft 9 kts 156°
2026-04-30 20:27 43.34794 77.01472 2231 ft 12 kts 192°
2026-04-30 20:28 43.34615 77.01465 2230 ft 14 kts 168°
2026-04-30 20:28 43.34427 77.01565 2229 ft 15 kts 155°
2026-04-30 20:29 43.34237 77.01683 2235 ft 14 kts 154°
2026-04-30 20:30 43.34172 77.01732 2235 ft 0 kts 137°
2026-04-30 20:30 43.34162 77.01791 2236 ft 6 kts 70°
2026-04-30 20:31 43.35120 77.03762 2241 ft 178 kts 56°
2026-04-30 20:32 43.37473 77.08561 4067 ft 211 kts 56°
2026-04-30 20:32 43.39580 77.11373 5046 ft 227 kts 19°
2026-04-30 20:33 43.41170 77.11569 5451 ft 236 kts 351°
2026-04-30 20:33 43.44002 77.09006 6219 ft 264 kts 311°
2026-04-30 20:33 43.45284 77.07121 6683 ft 275 kts 315°
2026-04-30 20:34 43.48167 77.03435 7793 ft 290 kts 304°
2026-04-30 20:34 43.49097 76.98094 9108 ft 293 kts 267°
2026-04-30 20:35 43.48954 76.95302 9946 ft 290 kts 265°
2026-04-30 20:35 43.48793 76.92544 10704 ft 287 kts 265°
2026-04-30 20:35 43.48620 76.87043 12067 ft 290 kts 273°
2026-04-30 20:36 43.48894 76.84242 12551 ft 301 kts 281°
2026-04-30 20:36 43.49373 76.81354 12846 ft 317 kts 282°
2026-04-30 20:36 43.50320 76.75129 13464 ft 350 kts 279°
2026-04-30 20:37 43.50763 76.71743 13779 ft 366 kts 279°
2026-04-30 20:37 43.51193 76.68237 14242 ft 374 kts 278°
2026-04-30 20:37 43.51614 76.64681 14889 ft 377 kts 278°
2026-04-30 20:37 43.52026 76.61097 15548 ft 380 kts 278°
2026-04-30 20:38 43.52438 76.57472 16171 ft 384 kts 278°
2026-04-30 20:38 43.52849 76.53815 16791 ft 388 kts 277°
2026-04-30 20:38 43.53262 76.50108 17409 ft 392 kts 277°
2026-04-30 20:39 43.54095 76.42589 18581 ft 400 kts 277°
2026-04-30 20:39 43.54514 76.38777 19135 ft 403 kts 277°
2026-04-30 20:39 43.54934 76.34937 19689 ft 406 kts 277°
2026-04-30 20:40 43.55780 76.27177 20810 ft 412 kts 277°
2026-04-30 20:40 43.56207 76.23246 21366 ft 415 kts 277°
2026-04-30 20:40 43.56634 76.19291 21919 ft 418 kts 277°
2026-04-30 20:41 43.57494 76.11303 22999 ft 424 kts 277°
2026-04-30 20:41 43.57926 76.07267 23526 ft 427 kts 277°
2026-04-30 20:41 43.58361 76.03197 23977 ft 429 kts 277°
2026-04-30 20:41 43.58795 75.99116 24451 ft 431 kts 277°
2026-04-30 20:42 43.59230 75.95012 24930 ft 432 kts 277°
2026-04-30 20:42 43.59666 75.90887 25396 ft 434 kts 277°
2026-04-30 20:42 43.60390 75.83994 26031 ft 441 kts 277°
2026-04-30 20:43 43.60833 75.79752 26176 ft 451 kts 277°
2026-04-30 20:43 43.61284 75.75419 26356 ft 459 kts 277°
2026-04-30 20:43 43.61739 75.71034 26678 ft 463 kts 277°
2026-04-30 20:44 43.62652 75.62187 27541 ft 466 kts 277°
2026-04-30 20:44 43.63107 75.57748 28018 ft 466 kts 277°
2026-04-30 20:44 43.63759 75.48901 29325 ft 459 kts 273°
2026-04-30 20:45 43.64120 75.40131 30476 ft 454 kts 272°
2026-04-30 20:45 43.64292 75.35780 30974 ft 452 kts 272°
2026-04-30 20:45 43.64462 75.31445 31462 ft 451 kts 272°
2026-04-30 20:46 43.64960 75.18554 32929 ft 445 kts 272°
2026-04-30 20:46 43.65122 75.14296 33404 ft 443 kts 272°
2026-04-30 20:47 43.65437 75.05883 34247 ft 439 kts 272°
2026-04-30 20:47 43.65591 75.01664 34548 ft 440 kts 272°
2026-04-30 20:48 43.65900 74.93127 35036 ft 443 kts 272°
2026-04-30 20:48 43.66053 74.88866 35276 ft 444 kts 272°
2026-04-30 20:48 43.66204 74.84597 35516 ft 445 kts 272°
2026-04-30 20:48 43.66353 74.80374 35760 ft 446 kts 272°
2026-04-30 20:49 43.66504 74.76023 35895 ft 448 kts 272°
2026-04-30 20:49 43.66651 74.71777 35893 ft 448 kts 272°
2026-04-30 20:50 43.67087 74.58864 35901 ft 448 kts 272°
2026-04-30 20:50 43.67369 74.50249 35896 ft 448 kts 272°
2026-04-30 20:51 43.67644 74.41643 35885 ft 448 kts 272°
2026-04-30 20:51 43.68043 74.28727 35876 ft 448 kts 271°
2026-04-30 20:52 43.68301 74.20116 35875 ft 448 kts 271°
2026-04-30 20:53 43.68694 74.07192 35870 ft 448 kts 271°
2026-04-30 20:53 43.68949 73.98575 35866 ft 449 kts 271°
2026-04-30 20:54 43.69317 73.85627 35861 ft 449 kts 271°
2026-04-30 20:55 43.69478 73.72666 35851 ft 449 kts 266°
2026-04-30 20:55 43.69072 73.64035 35850 ft 449 kts 265°
2026-04-30 20:56 43.68406 73.51087 35854 ft 450 kts 265°
2026-04-30 20:57 43.67725 73.38121 35851 ft 450 kts 265°
2026-04-30 20:57 43.67262 73.29476 35855 ft 450 kts 265°
2026-04-30 20:58 43.66560 73.16571 35855 ft 451 kts 265°
2026-04-30 20:58 43.66082 73.07926 35856 ft 451 kts 265°
2026-04-30 20:59 43.65351 72.94953 35858 ft 451 kts 265°
2026-04-30 21:00 43.64354 72.77659 35865 ft 451 kts 265°
2026-04-30 21:01 43.63589 72.64680 35869 ft 451 kts 264°
2026-04-30 21:02 43.62809 72.51706 35872 ft 452 kts 264°
2026-04-30 21:02 43.62280 72.43051 35873 ft 452 kts 264°
2026-04-30 21:03 43.61744 72.34384 35870 ft 452 kts 264°
2026-04-30 21:03 43.61202 72.25728 35874 ft 452 kts 264°
2026-04-30 21:04 43.60653 72.17069 35881 ft 452 kts 264°
2026-04-30 21:04 43.59817 72.04073 35882 ft 453 kts 264°
2026-04-30 21:05 43.59252 71.95411 35880 ft 453 kts 264°
2026-04-30 21:05 43.58679 71.86749 35883 ft 453 kts 264°
2026-04-30 21:06 43.58100 71.78087 35885 ft 453 kts 264°
2026-04-30 21:06 43.57519 71.69482 35882 ft 453 kts 264°
2026-04-30 21:07 43.56927 71.60826 35889 ft 453 kts 264°
2026-04-30 21:07 43.56329 71.52174 35884 ft 452 kts 263°
2026-04-30 21:08 43.55724 71.43524 35884 ft 452 kts 263°
2026-04-30 21:08 43.55113 71.34879 35883 ft 452 kts 263°
2026-04-30 21:09 43.54496 71.26239 35884 ft 452 kts 263°
2026-04-30 21:09 43.53872 71.17601 35886 ft 452 kts 263°
2026-04-30 21:10 43.53242 71.08971 35885 ft 452 kts 263°
2026-04-30 21:10 43.52605 71.00343 35887 ft 452 kts 263°
2026-04-30 21:11 43.51961 70.91721 35886 ft 452 kts 263°
2026-04-30 21:11 43.51310 70.83093 35888 ft 452 kts 263°
2026-04-30 21:12 43.50647 70.74480 35887 ft 452 kts 263°
2026-04-30 21:12 43.49975 70.65862 35886 ft 452 kts 262°
2026-04-30 21:13 43.49297 70.57256 35885 ft 452 kts 262°
2026-04-30 21:13 43.48613 70.48641 35882 ft 452 kts 262°
2026-04-30 21:14 43.47922 70.40034 35884 ft 452 kts 262°
2026-04-30 21:14 43.47225 70.31424 35889 ft 452 kts 262°
2026-04-30 21:15 43.46521 70.22818 35890 ft 452 kts 262°
2026-04-30 21:15 43.45810 70.14217 35894 ft 451 kts 262°
2026-04-30 21:16 43.45094 70.05620 35893 ft 452 kts 262°
2026-04-30 21:16 43.44370 69.97020 35898 ft 451 kts 262°
2026-04-30 21:17 43.43641 69.88431 35903 ft 451 kts 262°
2026-04-30 21:17 43.42903 69.79835 35896 ft 451 kts 262°
2026-04-30 21:18 43.42171 69.71245 35900 ft 451 kts 262°
2026-04-30 21:18 43.41460 69.62655 35901 ft 451 kts 262°
2026-04-30 21:19 43.40742 69.54059 35897 ft 452 kts 262°
2026-04-30 21:19 43.40015 69.45468 35899 ft 451 kts 262°
2026-04-30 21:20 43.39280 69.36887 35897 ft 452 kts 262°
2026-04-30 21:20 43.38544 69.28355 35893 ft 451 kts 262°
2026-04-30 21:21 43.37795 69.19770 35893 ft 452 kts 261°
2026-04-30 21:22 43.36717 69.06887 35896 ft 452 kts 262°
2026-04-30 21:23 43.35289 68.89713 35883 ft 452 kts 262°
2026-04-30 21:23 43.34195 68.76836 35880 ft 451 kts 262°
2026-04-30 21:24 43.33458 68.68268 35881 ft 451 kts 261°
2026-04-30 21:24 43.32713 68.59693 35885 ft 451 kts 261°
2026-04-30 21:25 43.31246 68.46929 35881 ft 450 kts 259°
2026-04-30 21:26 43.29553 68.34233 35877 ft 450 kts 255°
2026-04-30 21:27 43.27262 68.21738 35866 ft 449 kts 255°
2026-04-30 21:27 43.25722 68.13419 35857 ft 449 kts 255°
2026-04-30 21:28 43.23401 68.00954 35853 ft 449 kts 254°
2026-04-30 21:29 43.21066 67.88500 35843 ft 449 kts 254°
2026-04-30 21:30 43.17411 67.69168 35839 ft 449 kts 254°
2026-04-30 21:31 43.13451 67.48464 35843 ft 449 kts 254°
2026-04-30 21:32 43.11062 67.36054 35841 ft 448 kts 254°
2026-04-30 21:32 43.09465 67.27796 35839 ft 448 kts 254°
2026-04-30 21:33 43.07059 67.15426 35831 ft 448 kts 254°
2026-04-30 21:34 43.05448 67.07194 35842 ft 447 kts 254°
2026-04-30 21:34 43.03024 66.94867 35838 ft 447 kts 254°
2026-04-30 21:35 43.01402 66.86668 35847 ft 446 kts 254°
2026-04-30 21:35 42.99787 66.78535 35851 ft 445 kts 254°
2026-04-30 21:36 42.98143 66.70368 35849 ft 445 kts 253°
2026-04-30 21:37 42.94840 66.54067 35862 ft 444 kts 253°
2026-04-30 21:37 42.93209 66.45924 35862 ft 444 kts 253°
2026-04-30 21:38 42.91571 66.37795 35868 ft 443 kts 253°
2026-04-30 21:38 42.89928 66.29678 35870 ft 443 kts 253°
2026-04-30 21:39 42.88277 66.21560 35874 ft 443 kts 253°
2026-04-30 21:39 42.86620 66.13451 35878 ft 443 kts 253°
2026-04-30 21:40 42.84957 66.05358 35886 ft 443 kts 253°
2026-04-30 21:40 42.83279 65.97277 35888 ft 442 kts 253°
2026-04-30 21:41 42.81596 65.89212 35894 ft 442 kts 253°
2026-04-30 21:41 42.79908 65.81158 35898 ft 442 kts 253°
2026-04-30 21:42 42.78217 65.73109 35898 ft 441 kts 252°
2026-04-30 21:42 42.76524 65.65073 35903 ft 441 kts 252°
2026-04-30 21:43 42.74825 65.57045 35909 ft 441 kts 252°
2026-04-30 21:43 42.73117 65.49012 35914 ft 441 kts 252°
2026-04-30 21:44 42.71405 65.40989 35913 ft 441 kts 252°
2026-04-30 21:44 42.69686 65.32965 35915 ft 441 kts 252°
2026-04-30 21:45 42.67962 65.24949 35923 ft 441 kts 252°
2026-04-30 21:45 42.66230 65.16929 35923 ft 442 kts 252°
2026-04-30 21:46 42.64492 65.08909 35929 ft 442 kts 252°
2026-04-30 21:46 42.62761 65.00953 35929 ft 442 kts 252°
2026-04-30 21:47 42.61012 64.92941 35936 ft 442 kts 252°
2026-04-30 21:47 42.59255 64.84929 35938 ft 442 kts 252°
2026-04-30 21:48 42.57492 64.76912 35936 ft 443 kts 252°
2026-04-30 21:48 42.55724 64.68906 35940 ft 443 kts 252°
2026-04-30 21:49 42.53947 64.60891 35944 ft 443 kts 252°
2026-04-30 21:49 42.52167 64.52890 35949 ft 443 kts 252°
2026-04-30 21:50 42.50382 64.44894 35952 ft 442 kts 252°
2026-04-30 21:50 42.48591 64.36908 35950 ft 442 kts 251°
2026-04-30 21:51 42.46797 64.28933 35955 ft 442 kts 251°
2026-04-30 21:51 42.44999 64.20969 35960 ft 441 kts 251°
2026-04-30 21:52 42.43216 64.13006 35960 ft 441 kts 251°
2026-04-30 21:52 42.41427 64.05048 35966 ft 441 kts 251°
2026-04-30 21:53 42.39629 63.97103 35964 ft 441 kts 251°
2026-04-30 21:53 42.37807 63.89168 35965 ft 441 kts 251°
2026-04-30 21:54 42.35990 63.81298 35973 ft 441 kts 251°
2026-04-30 21:54 42.34156 63.73376 35969 ft 441 kts 251°
2026-04-30 21:55 42.32318 63.65465 35980 ft 441 kts 251°
2026-04-30 21:55 42.30475 63.57559 35983 ft 440 kts 251°
2026-04-30 21:56 42.28625 63.49657 35984 ft 440 kts 251°
2026-04-30 21:56 42.26775 63.41778 35977 ft 440 kts 251°
2026-04-30 21:57 42.24920 63.33904 35980 ft 439 kts 251°
2026-04-30 21:57 42.23061 63.26046 35987 ft 439 kts 251°
2026-04-30 21:58 42.21199 63.18201 35987 ft 438 kts 250°
2026-04-30 21:58 42.19333 63.10367 35986 ft 438 kts 250°
2026-04-30 21:59 42.17462 63.02544 35988 ft 438 kts 250°
2026-04-30 22:00 42.14668 62.90872 35986 ft 437 kts 250°
2026-04-30 22:00 42.11854 62.79181 35989 ft 437 kts 250°
2026-04-30 22:01 42.09972 62.71389 35989 ft 436 kts 250°
2026-04-30 22:01 42.08087 62.63609 35994 ft 436 kts 250°
2026-04-30 22:02 42.06200 62.55840 35993 ft 436 kts 250°
2026-04-30 22:02 42.04309 62.48086 35992 ft 435 kts 250°
2026-04-30 22:03 42.02413 62.40342 36000 ft 435 kts 250°
2026-04-30 22:03 42.00513 62.32607 36000 ft 435 kts 250°
2026-04-30 22:04 41.98606 62.24874 35999 ft 435 kts 250°
2026-04-30 22:05 41.95735 62.13284 36004 ft 435 kts 250°
2026-04-30 22:05 41.93817 62.05564 36007 ft 435 kts 250°
2026-04-30 22:06 41.91901 61.97849 36009 ft 435 kts 250°
2026-04-30 22:06 41.89013 61.86284 36003 ft 435 kts 249°
2026-04-30 22:07 41.87080 61.78585 36012 ft 435 kts 249°
2026-04-30 22:07 41.85144 61.70894 36007 ft 434 kts 249°
2026-04-30 22:08 41.83200 61.63210 36014 ft 434 kts 249°
2026-04-30 22:08 41.81253 61.55542 36012 ft 434 kts 249°
2026-04-30 22:09 41.79301 61.47878 36018 ft 433 kts 249°
2026-04-30 22:09 41.77346 61.40232 36018 ft 433 kts 249°
2026-04-30 22:10 41.75385 61.32588 36024 ft 433 kts 249°
2026-04-30 22:10 41.73421 61.24954 36024 ft 433 kts 249°
2026-04-30 22:11 41.70478 61.13565 36028 ft 433 kts 249°
2026-04-30 22:12 41.68500 61.05939 36028 ft 433 kts 249°
2026-04-30 22:12 41.66516 60.98318 36035 ft 433 kts 248°
2026-04-30 22:13 41.64526 60.90694 36037 ft 434 kts 248°
2026-04-30 22:13 41.62532 60.83079 36044 ft 434 kts 248°
2026-04-30 22:14 41.60530 60.75463 36046 ft 434 kts 248°
2026-04-30 22:14 41.58520 60.67841 36045 ft 434 kts 248°
2026-04-30 22:15 41.56665 60.60146 36045 ft 435 kts 250°
2026-04-30 22:15 41.54865 60.52416 36045 ft 435 kts 250°
2026-04-30 22:16 41.53060 60.44693 36049 ft 436 kts 250°
2026-04-30 22:17 41.49429 60.29231 36045 ft 436 kts 250°
2026-04-30 22:17 41.46701 60.17695 36046 ft 436 kts 250°
2026-04-30 22:18 41.43923 60.06124 36047 ft 437 kts 250°
2026-04-30 22:19 41.41430 59.95799 36049 ft 437 kts 250°
2026-04-30 22:20 41.38635 59.84281 36053 ft 437 kts 250°
2026-04-30 22:20 41.35826 59.72700 36055 ft 438 kts 251°
2026-04-30 22:21 41.34348 59.64815 36058 ft 440 kts 256°
2026-04-30 22:21 41.33426 59.56736 36063 ft 441 kts 259°
2026-04-30 22:22 41.32660 59.48616 36062 ft 442 kts 259°
2026-04-30 22:22 41.31893 59.40498 36063 ft 442 kts 259°
2026-04-30 22:23 41.31121 59.32383 36067 ft 442 kts 259°
2026-04-30 22:23 41.30343 59.24266 36067 ft 441 kts 259°
2026-04-30 22:24 41.29561 59.16160 36074 ft 441 kts 259°
2026-04-30 22:24 41.28772 59.08057 36069 ft 441 kts 259°
2026-04-30 22:25 41.27979 58.99957 36074 ft 441 kts 259°
2026-04-30 22:25 41.27179 58.91856 36074 ft 441 kts 259°
2026-04-30 22:26 41.25969 58.79710 36081 ft 441 kts 259°
2026-04-30 22:27 41.25155 58.71611 36081 ft 441 kts 259°
2026-04-30 22:27 41.23923 58.59469 36080 ft 441 kts 259°
2026-04-30 22:28 41.22679 58.47331 36084 ft 441 kts 259°
2026-04-30 22:29 41.20998 58.31148 36087 ft 442 kts 259°
2026-04-30 22:31 41.18010 58.02908 36090 ft 441 kts 259°
2026-04-30 22:32 41.15836 57.82718 36095 ft 441 kts 259°
2026-04-30 22:33 41.13623 57.62546 36094 ft 441 kts 259°
2026-04-30 22:35 41.11375 57.42394 36100 ft 441 kts 258°
2026-04-30 22:36 41.09092 57.22262 36102 ft 441 kts 258°
2026-04-30 22:37 41.07241 57.06164 36106 ft 441 kts 258°
2026-04-30 22:38 41.05368 56.90085 36108 ft 441 kts 258°
2026-04-30 22:39 41.03954 56.78084 36110 ft 441 kts 258°
2026-04-30 22:40 41.01107 56.53993 36112 ft 441 kts 260°
2026-04-30 22:41 41.00486 56.33611 36118 ft 443 kts 266°
2026-04-30 22:43 41.00164 56.09091 36124 ft 444 kts 265°
2026-04-30 22:44 40.99920 55.92733 36123 ft 444 kts 265°
2026-04-30 22:45 40.99529 55.68169 36128 ft 444 kts 265°
2026-04-30 22:47 40.99123 55.43602 36137 ft 444 kts 265°
2026-04-30 22:48 40.98819 55.27223 36140 ft 444 kts 265°
2026-04-30 22:49 40.98319 55.02683 36137 ft 444 kts 265°
2026-04-30 22:51 40.97763 54.78160 36143 ft 444 kts 264°
2026-04-30 22:52 40.97458 54.65903 36141 ft 444 kts 264°
2026-04-30 22:53 40.97030 54.49560 36140 ft 443 kts 264°
2026-04-30 22:53 40.96694 54.37312 36132 ft 443 kts 264°
2026-04-30 22:55 40.96108 54.16972 36142 ft 443 kts 264°
2026-04-30 22:56 40.95612 54.00678 36155 ft 442 kts 264°
2026-04-30 22:57 40.94960 53.80335 36158 ft 442 kts 264°
2026-04-30 22:58 40.94413 53.64068 36157 ft 442 kts 264°
2026-04-30 22:59 40.93549 53.39675 36158 ft 442 kts 263°